Home > Weather > Wright > Past weeks

Flag for U.S.A. Weather for the Past 2 Weeks in Wright, Florida, U.S.A.

Now
47 °F

Clear.


Feels Like: 44 °F
Forecast: 36 / 58 °F
Wind: 6 mph from North

Location: Hurlburt Field

Current Time: Feb 13, 2016 at 8:21:28 PM

Latest Report: Feb 13, 2016 at 6:58 PM


Visibility: 10 mi

Pressure: 30.34 "Hg

Humidity: 39%

Dew point: 22 °F

Location of WrightLocation

Historic Weather in Wright — Graph

°F

Wright Temperature Yesterday

Maximum temperature yesterday: 68 °F (at 12:58 PM)
Minimum temperature yesterday: 56 °F (at 11:58 PM)
Average temperature yesterday: 62 °F

High & Low Weather Summary for the Past Weeks

 TemperatureHumidityPressure
High72 °F (Feb 1, 12:58 PM)95% (Jan 31, 11:58 PM)30.45 "Hg (Jan 31, 11:58 PM)
Low32 °F (Feb 10, 12:58 AM)15% (Feb 13, 1:58 PM)29.83 "Hg (Feb 8, 2:58 PM)
Average53 °F59%30.13 "Hg
* Reported Jan 29 6:58 PM — Feb 13 6:58 PM, Wright, Weather by CustomWeather, © 2016

Note: Actual official high and low records may vary slightly from our data, if they occured in-between our weather recording intervals... More about our weather records

Advertising

Wright Weather History for the Previous 24 Hours

 ConditionsComfort  
Time TempWeatherWind HumidityBarometerVisibility
6:58 PM
Sat, Feb 13
47 °FClear.6 mph39%30.34 "Hg10 mi
5:58 PM51 °FClear.6 mph29%30.32 "Hg10 mi
4:58 PM58 °FClear.8 mph18%30.32 "Hg10 mi
3:58 PM60 °FSunny.6 mph15%30.29 "Hg10 mi
2:58 PM61 °FSunny.13 mph15%30.30 "Hg10 mi
1:58 PM60 °FSunny.10 mph15%30.32 "Hg10 mi
12:58 PM59 °FSunny.13 mph18%30.34 "Hg10 mi
11:58 AM57 °FSunny.15 mph23%30.37 "Hg10 mi
10:58 AM55 °FSunny.10 mph29%30.40 "Hg10 mi
9:58 AM52 °FSunny.12 mph34%30.40 "Hg10 mi
8:58 AM50 °FSunny.17 mph37%30.39 "Hg10 mi
7:58 AM47 °FSunny.15 mph41%30.37 "Hg10 mi
6:58 AM45 °FSunny.12 mph46%30.34 "Hg10 mi
5:58 AM46 °FSunny.10 mph46%30.32 "Hg10 mi
4:58 AM47 °FClear.10 mph48%30.29 "Hg10 mi
3:58 AM49 °FClear.12 mph48%30.27 "Hg10 mi
2:58 AM50 °FClear.14 mph48%30.24 "Hg10 mi
1:58 AM52 °FClear.16 mph50%30.24 "Hg10 mi
12:58 AM52 °FClear.8 mph59%30.22 "Hg10 mi
11:58 PM
Fri, Feb 12
56 °FClear.10 mph59%30.22 "Hg10 mi
10:58 PM59 °FClear.7 mph71%30.22 "Hg10 mi
9:58 PM60 °FClear.5 mph78%30.22 "Hg10 mi
8:58 PM64 °FClear.5 mph69%30.19 "Hg10 mi
Weather by CustomWeather, © 2016

See weather overviewHow to use our weather pages